User: anonymous   Login
Location: Unspecified
(0.0000°N, 0.0000°E)
Time: 00:47:58
(UTC+00:00)
Language:

STARLINK-30956 - Orbit

View from above orbital plane
View from above orbital plane
View from above satellite
View from above satellite

Ground track
Ground track

The orbit is defined by the following mean orbital elements,

1 58481U          26145.52828242 +.00000000 +00000-0 +14770-3 0 00002
2 58481  43.0016 327.3342 0001312 273.0986  86.9716 15.27585481    01
Epoch (UTC): 25 May 2026 12:40:43
Eccentricity: 0.0001312
inclination: 43.0016°
perigee height: 482 km
apogee height: 484 km
right ascension of ascending node: 327.3342°
argument of perigee: 273.0986°
revolutions per day: 15.27585481
mean anomaly at epoch: 86.9716°

The dashed part of the orbit path shows where the satellite is in the earth's shadow,  

DLR